CZ-6A DEB, 56655

Orbit data source: Space-Track

CZ-6A DEB, 56655 is space debris in SSO originally from a launch on Fri, 11 Nov 2022 UTC launched from the Taiyaun Space Center, China (TSC). Debris objects in space refer to the collection of defunct objects orbiting the Earth. Examples of debris include non-operational satellites, rocket bodies, and fragments generated from explosions, collisions, or faulty payload assembly.

Loading next visibility...
Identifier
56655, 2022-151AGF
Orbit
SSO
Country
Flag of CNCN / PRC
Related business
Manufacturer
SAST
Mission
Spacecraft
Bus & Motor
Unknown
Mass
Unknown
Launch date (UTC)
2022-11-11 (4 years ago)
Launch vehicle
Unknown
Launch site
Taiyaun Space Center, China (TSC)
Object type
Payload
Rocket body
Debris
Shape & HBR
Unknown shape, 0.1 m
Radar Cross Section
Small (<0.1 m²)

Expand to show TLE details & history
Last TLE update: 6 days ago

TLE from 6 days ago
0 CZ-6A DEB
1 56655U 22151AGF 26167.32130853  .00000627  00000-0  20507-3 0  9997
2 56655  98.6216 204.0980 0084132   2.2564 357.8987 14.40031604164934
Epoch: 2026-06-16T07:42Z
TLE epoch observation values (Epoch: 2026-06-16T07:42:41.056Z)
Latitude
-0.00006°
Longitude
-176.16808°
Altitude
701.327 km
Speed
7.537 km/s
True Right ascension
13h 36m 23s
True Declination
0° 00' 00"
Sunlit
Object was in full shadow at epoch
Visualization orbit readout
Latitude
Unknown
Longitude
Unknown
Altitude
Unknown
Speed
Unknown
Apparent Right ascension
Unknown
Apparent Declination
Unknown
Sunlit
N/A
Visualization observer readout
Local Sidereal Time
21:54:59
Azimuth
Unknown
Elevation
Unknown
Doppler factor
Unknown
Orbital elements
Apogee altitude
815.538 km
Perigee altitude
695.504 km
Semi-major axis
7,133.658 km
Eccentricity
0.00841
Inclination
98.6216°
RAAN
204.098°
Arg. of periapsis
2.2564°
True anomaly
357.86298°
Mean anomaly
357.8987°
Eccentric anomaly
357.88088°
Mean motion
3.60226 °/min
Orbital period
99.94 mins
BSTAR
0.00020507
Loading maneuver chart data...
Computing Atmospheric mass density...
Loading historical data...
Loading historical data...
Loading historical data...
Loading historical data...
Loading historical data...
Loading historical data...
Loading historical data...

Documentation

Showing up to 5 results
|